• In Deutschland
  • Länderverzeichnis
  • Für 7 Tage
  • Wassertemperatur
  • Satellitenkarten
  • Wetterkarte
  • Widgets
  • user-avatar
    Anmelden

    Stündliche Wetter Plymouth

    Heute, 16 Januar, Dienstag

    Zeit Temperatur Niederschläge Wind Luftdruck Luftfeuchtigkeit
    00:00 +7°C° 0 mm 13 m/S 747 mmHg 82%
    01:00 +6°C° 0,2 mm 14 m/S 747 mmHg 80%
    02:00 +6°C° 0,2 mm 14 m/S 748 mmHg 78%
    03:00 +5°C° 0,2 mm 14 m/S 748 mmHg 77%
    04:00 +5°C° 0,2 mm 14 m/S 748 mmHg 77%
    05:00 +5°C° 0,2 mm 14 m/S 748 mmHg 77%
    06:00 +4°C° 0 mm 13 m/S 748 mmHg 78%
    07:00 +4°C° 0,2 mm 13 m/S 749 mmHg 77%
    08:00 +4°C° 0,2 mm 13 m/S 749 mmHg 76%
    09:00 +4°C° 0,2 mm 14 m/S 749 mmHg 74%
    10:00 +4°C° 0,3 mm 14 m/S 749 mmHg 74%
    11:00 +4°C° 0,3 mm 14 m/S 749 mmHg 73%
    12:00 +4°C° 0,3 mm 15 m/S 749 mmHg 73%
    13:00 +4°C° 0,6 mm 15 m/S 749 mmHg 74%
    14:00 +4°C° 0,6 mm 15 m/S 749 mmHg 75%
    15:00 +2°C° 0,6 mm 16 m/S 748 mmHg 76%
    16:00 +2°C° 0,5 mm 16 m/S 748 mmHg 75%
    17:00 +1°C° 0,5 mm 15 m/S 748 mmHg 74%
    18:00 +1°C° 0,5 mm 15 m/S 748 mmHg 74%
    19:00 +1°C° 0,6 mm 15 m/S 748 mmHg 74%
    20:00 0°C° 0,6 mm 16 m/S 749 mmHg 74%
    21:00 0°C° 0,6 mm 16 m/S 749 mmHg 74%
    22:00 0°C° 0,4 mm 16 m/S 750 mmHg 74%
    23:00 0°C° 0,4 mm 16 m/S 750 mmHg 73%

    Morgen, 17 Januar, Mittwoch

    Zeit Temperatur Niederschläge Wind Luftdruck Luftfeuchtigkeit
    00:00 -1°C° 0,4 mm 15 m/S 751 mmHg 72%
    01:00 -2°C° 0,5 mm 16 m/S 752 mmHg 73%
    02:00 0°C° 0,5 mm 16 m/S 752 mmHg 73%
    03:00 0°C° 0,5 mm 16 m/S 753 mmHg 73%
    04:00 0°C° 0,1 mm 15 m/S 754 mmHg 73%
    05:00 0°C° 0,1 mm 14 m/S 754 mmHg 73%
    06:00 0°C° 0,1 mm 14 m/S 755 mmHg 74%
    07:00 0°C° 0,1 mm 13 m/S 756 mmHg 74%
    08:00 0°C° 0,1 mm 13 m/S 757 mmHg 75%
    09:00 0°C° 0,1 mm 12 m/S 758 mmHg 76%
    10:00 +2°C° 0,1 mm 12 m/S 758 mmHg 76%
    11:00 +2°C° 0,1 mm 12 m/S 759 mmHg 76%
    12:00 +3°C° 0,1 mm 12 m/S 759 mmHg 76%
    13:00 +3°C° 0,1 mm 12 m/S 759 mmHg 77%
    14:00 +3°C° 0,1 mm 11 m/S 759 mmHg 78%
    15:00 +3°C° 0,1 mm 11 m/S 759 mmHg 80%
    16:00 +3°C° 0,2 mm 11 m/S 759 mmHg 81%
    17:00 +3°C° 0,2 mm 10 m/S 758 mmHg 82%
    18:00 +3°C° 0,2 mm 10 m/S 757 mmHg 84%
    19:00 +4°C° 0,8 mm 12 m/S 756 mmHg 85%
    20:00 +5°C° 0,8 mm 14 m/S 755 mmHg 87%
    21:00 +6°C° 0,8 mm 16 m/S 754 mmHg 89%
    22:00 +7°C° 0,8 mm 17 m/S 753 mmHg 89%
    23:00 +7°C° 0,8 mm 17 m/S 752 mmHg 88%

    übermorgen, 18 Januar, Donnerstag

    Zeit Temperatur Niederschläge Wind Luftdruck Luftfeuchtigkeit
    00:00 +9°C° 0,8 mm 18 m/S 751 mmHg 88%
    01:00 +9°C° 0,6 mm 17 m/S 751 mmHg 88%
    02:00 +9°C° 0,6 mm 16 m/S 751 mmHg 88%
    03:00 +9°C° 0,6 mm 16 m/S 751 mmHg 87%
    04:00 +9°C° 0,2 mm 14 m/S 751 mmHg 86%
    05:00 +8°C° 0,2 mm 12 m/S 751 mmHg 86%
    06:00 +7°C° 0,2 mm 10 m/S 751 mmHg 85%
    07:00 +7°C° 0,1 mm 10 m/S 751 mmHg 84%
    08:00 +7°C° 0,1 mm 10 m/S 751 mmHg 84%
    09:00 +7°C° 0,1 mm 9 m/S 750 mmHg 84%
    10:00 +7°C° 0,1 mm 10 m/S 751 mmHg 81%
    11:00 +7°C° 0,1 mm 11 m/S 751 mmHg 78%
    12:00 +7°C° 0,1 mm 11 m/S 751 mmHg 75%
    13:00 +7°C° 0,2 mm 11 m/S 751 mmHg 74%
    14:00 +6°C° 0,2 mm 11 m/S 752 mmHg 74%
    15:00 +4°C° 0,2 mm 11 m/S 752 mmHg 73%
    16:00 +5°C° 0,1 mm 10 m/S 752 mmHg 74%
    17:00 +3°C° 0,1 mm 10 m/S 753 mmHg 74%
    18:00 +2°C° 0,1 mm 10 m/S 753 mmHg 75%
    19:00 +2°C° 0,1 mm 9 m/S 753 mmHg 76%
    20:00 +2°C° 0,1 mm 9 m/S 754 mmHg 77%
    21:00 +2°C° 0,1 mm 8 m/S 754 mmHg 77%
    22:00 +2°C° 0,3 mm 8 m/S 754 mmHg 78%
    23:00 +1°C° 0,3 mm 8 m/S 754 mmHg 78%

    19 Januar, Freitag

    Zeit Temperatur Niederschläge Wind Luftdruck Luftfeuchtigkeit
    00:00 +1°C° 0,3 mm 8 m/S 754 mmHg 78%
    01:00 +1°C° 0,2 mm 9 m/S 754 mmHg 78%
    02:00 +1°C° 0,2 mm 9 m/S 754 mmHg 77%
    03:00 +1°C° 0,2 mm 9 m/S 754 mmHg 77%
    04:00 +1°C° 0,2 mm 9 m/S 754 mmHg 77%
    05:00 +1°C° 0,2 mm 9 m/S 754 mmHg 77%
    06:00 +1°C° 0,2 mm 9 m/S 754 mmHg 77%
    07:00 +1°C° 0,2 mm 9 m/S 755 mmHg 76%
    08:00 0°C° 0,2 mm 9 m/S 755 mmHg 75%
    09:00 0°C° 0,2 mm 9 m/S 755 mmHg 74%
    10:00 +1°C° 0,3 mm 10 m/S 755 mmHg 73%
    11:00 +1°C° 0,3 mm 10 m/S 755 mmHg 72%
    12:00 +2°C° 0,3 mm 11 m/S 755 mmHg 71%
    13:00 +2°C° 0,3 mm 11 m/S 755 mmHg 71%
    14:00 +1°C° 0,3 mm 10 m/S 755 mmHg 72%
    15:00 +1°C° 0,3 mm 10 m/S 754 mmHg 73%
    16:00 +1°C° 0,3 mm 10 m/S 755 mmHg 75%
    17:00 0°C° 0,3 mm 10 m/S 755 mmHg 76%
    18:00 0°C° 0,3 mm 10 m/S 755 mmHg 77%
    19:00 0°C° 0,2 mm 10 m/S 755 mmHg 77%
    20:00 0°C° 0,2 mm 10 m/S 756 mmHg 77%
    21:00 0°C° 0,2 mm 9 m/S 756 mmHg 77%
    22:00 0°C° 0,1 mm 10 m/S 756 mmHg 78%
    23:00 0°C° 0,1 mm 10 m/S 756 mmHg 79%

    20 Januar, Samstag

    Zeit Temperatur Niederschläge Wind Luftdruck Luftfeuchtigkeit
    00:00 0°C° 0,1 mm 10 m/S 757 mmHg 79%
    01:00 0°C° 0,2 mm 10 m/S 757 mmHg 80%
    02:00 0°C° 0,2 mm 10 m/S 757 mmHg 80%
    03:00 0°C° 0,2 mm 10 m/S 757 mmHg 81%
    04:00 0°C° 0,2 mm 10 m/S 758 mmHg 81%
    05:00 0°C° 0,2 mm 10 m/S 758 mmHg 81%
    06:00 0°C° 0,2 mm 9 m/S 758 mmHg 81%
    07:00 0°C° 0 mm 9 m/S 758 mmHg 81%
    08:00 0°C° 0 mm 8 m/S 759 mmHg 81%
    09:00 0°C° 0 mm 7 m/S 759 mmHg 81%
    10:00 +2°C° 0 mm 7 m/S 759 mmHg 81%
    11:00 +3°C° 0 mm 6 m/S 759 mmHg 80%
    12:00 +5°C° 0 mm 5 m/S 759 mmHg 79%
    13:00 +5°C° 0 mm 4 m/S 759 mmHg 79%
    14:00 +5°C° 0 mm 3 m/S 759 mmHg 79%
    15:00 +6°C° 0 mm 2 m/S 759 mmHg 80%
    16:00 +5°C° 0,4 mm 2 m/S 759 mmHg 80%
    17:00 +5°C° 0,4 mm 2 m/S 759 mmHg 81%
    18:00 +4°C° 0,4 mm 2 m/S 759 mmHg 81%
    19:00 +4°C° 0,1 mm 2 m/S 759 mmHg 81%
    20:00 +4°C° 0,1 mm 2 m/S 759 mmHg 82%
    21:00 +3°C° 0,1 mm 3 m/S 759 mmHg 82%
    22:00 +3°C° 0,1 mm 3 m/S 759 mmHg 82%
    23:00 +3°C° 0,1 mm 4 m/S 759 mmHg 83%

    21 Januar, Sonntag

    Zeit Temperatur Niederschläge Wind Luftdruck Luftfeuchtigkeit
    00:00 +4°C° 0,1 mm 4 m/S 759 mmHg 84%
    01:00 +4°C° 0,1 mm 4 m/S 759 mmHg 85%
    02:00 +3°C° 0,1 mm 5 m/S 759 mmHg 87%
    03:00 +3°C° 0,1 mm 5 m/S 759 mmHg 88%
    04:00 +3°C° 0 mm 5 m/S 759 mmHg 89%
    05:00 +5°C° 0 mm 5 m/S 759 mmHg 91%
    06:00 +5°C° 0 mm 5 m/S 759 mmHg 92%
    07:00 +5°C° 0 mm 5 m/S 759 mmHg 92%
    08:00 +5°C° 0 mm 5 m/S 760 mmHg 93%
    09:00 +6°C° 0 mm 5 m/S 760 mmHg 93%
    10:00 +6°C° 0 mm 5 m/S 760 mmHg 93%
    11:00 +7°C° 0 mm 5 m/S 760 mmHg 93%
    12:00 +7°C° 0 mm 6 m/S 760 mmHg 93%
    13:00 +7°C° 0,3 mm 5 m/S 760 mmHg 94%
    14:00 +7°C° 0,3 mm 5 m/S 759 mmHg 94%
    15:00 +8°C° 0,3 mm 5 m/S 759 mmHg 95%
    16:00 +7°C° 0,3 mm 4 m/S 759 mmHg 96%
    17:00 +7°C° 0,3 mm 4 m/S 758 mmHg 96%
    18:00 +7°C° 0,3 mm 4 m/S 758 mmHg 97%
    19:00 +7°C° 1,3 mm 5 m/S 758 mmHg 97%
    20:00 +7°C° 1,3 mm 5 m/S 757 mmHg 97%
    21:00 +8°C° 1,3 mm 5 m/S 757 mmHg 97%
    22:00 +8°C° 1,7 mm 6 m/S 757 mmHg 97%
    23:00 +8°C° 1,7 mm 6 m/S 756 mmHg 97%
    Mehr zeigen